| time (UTC) | temp F | wind direction | speed MPH | gust MPH | rain 1hr in | rain 24hr in | rain mn in | humidity % | barometer mb |
| 20260506001021 | 59 | 0.0 | 1.0 | 0.00 | 0.14 | 0.14 | 95 | 1006.5 | |
| 20260506000020 | 59 | 0.0 | 1.0 | 0.00 | 0.14 | 0.14 | 95 | 1006.4 | |
| 20260505235041 | 60 | 0.0 | 0.0 | 0.00 | 0.14 | 0.14 | 94 | 1006.5 | |
| 20260505234021 | 60 | 0.0 | 1.0 | 0.00 | 0.14 | 0.14 | 93 | 1006.3 | |
| 20260505233020 | 60 | 0.0 | 2.0 | 0.00 | 0.14 | 0.14 | 91 | 1006.0 | |
| 20260505232020 | 61 | 0.0 | 2.0 | 0.00 | 0.14 | 0.14 | 92 | 1006.0 | |
| 20260505231016 | 61 | 0.0 | 2.0 | 0.00 | 0.14 | 0.14 | 92 | 1005.5 | |
| 20260505230020 | 61 | 0.0 | 2.0 | 0.00 | 0.14 | 0.14 | 93 | 1005.5 | |
| 20260505225041 | 61 | 0.0 | 2.0 | 0.00 | 0.14 | 0.14 | 93 | 1005.6 | |
| 20260505224040 | 61 | 0.0 | 2.0 | 0.00 | 0.14 | 0.14 | 93 | 1005.7 | |
| 20260505223021 | 61 | 0.0 | 4.0 | 0.00 | 0.14 | 0.14 | 92 | 1005.3 | |
| 20260505222020 | 61 | 0.0 | 4.0 | 0.00 | 0.14 | 0.14 | 93 | 1005.1 | |
| 20260505221017 | 61 | 0.0 | 1.0 | 0.02 | 0.14 | 0.14 | 93 | 1005.3 | |
| 20260505220017 | 62 | 0.0 | 1.0 | 0.02 | 0.14 | 0.14 | 92 | 1005.1 | |
| 20260505215041 | 61 | 0.0 | 1.0 | 0.03 | 0.14 | 0.14 | 89 | 1004.9 | |
| 20260505214040 | 61 | 203 | 1.0 | 7.0 | 0.14 | 0.14 | 0.14 | 87 | 1005.0 |
| 20260505213040 | 61 | 113 | 2.0 | 8.0 | 0.14 | 0.14 | 0.14 | 90 | 1004.7 |
| 20260505212021 | 61 | 0.0 | 4.0 | 0.14 | 0.14 | 0.14 | 89 | 1005.8 | |
| 20260505211020 | 62 | 0.0 | 5.0 | 0.12 | 0.12 | 0.12 | 88 | 1005.8 | |
| 20260505210016 | 64 | 293 | 2.0 | 11.0 | 0.12 | 0.12 | 0.12 | 86 | 1005.4 |
| 20260505205020 | 71 | 270 | 4.0 | 11.0 | 0.11 | 0.11 | 0.11 | 77 | 1005.2 |
| 20260505204021 | 77 | 270 | 6.0 | 18.0 | 0.00 | 0.00 | 0.00 | 51 | 1004.3 |
| 20260505203020 | 79 | 270 | 4.0 | 12.0 | 0.00 | 0.00 | 0.00 | 37 | 1002.6 |
| 20260505202021 | 79 | 225 | 4.0 | 12.0 | 0.00 | 0.00 | 0.00 | 38 | 1002.3 |
| 20260505201021 | 79 | 248 | 5.0 | 15.0 | 0.00 | 0.00 | 0.00 | 37 | 1002.1 |
| 20260505200020 | 79 | 225 | 3.0 | 8.0 | 0.00 | 0.00 | 0.00 | 38 | 1002.3 |
| 20260505195017 | 80 | 203 | 5.0 | 12.0 | 0.00 | 0.00 | 0.00 | 39 | 1002.4 |
| 20260505194040 | 81 | 225 | 6.0 | 17.0 | 0.00 | 0.00 | 0.00 | 35 | 1002.6 |
| 20260505193020 | 81 | 203 | 6.0 | 16.0 | 0.00 | 0.00 | 0.00 | 38 | 1002.4 |
| 20260505192020 | 81 | 203 | 7.0 | 15.0 | 0.00 | 0.00 | 0.00 | 36 | 1002.8 |
| 20260505191020 | 81 | 203 | 5.0 | 18.0 | 0.00 | 0.00 | 0.00 | 36 | 1002.9 |
| 20260505190020 | 82 | 203 | 6.0 | 18.0 | 0.00 | 0.00 | 0.00 | 37 | 1002.8 |
| 20260505185018 | 81 | 203 | 5.0 | 11.0 | 0.00 | 0.00 | 0.00 | 39 | 1002.9 |
| 20260505184016 | 80 | 270 | 5.0 | 13.0 | 0.00 | 0.00 | 0.00 | 38 | 1003.1 |
| 20260505183020 | 81 | 270 | 6.0 | 16.0 | 0.00 | 0.00 | 0.00 | 37 | 1003.3 |
| 20260505182021 | 82 | 270 | 7.0 | 20.0 | 0.00 | 0.00 | 0.00 | 35 | 1003.4 |
| 20260505181020 | 82 | 225 | 6.0 | 18.0 | 0.00 | 0.00 | 0.00 | 38 | 1003.8 |
| 20260505180101 | 81 | 270 | 6.0 | 21.0 | 0.00 | 0.00 | 0.00 | 38 | 1004.2 |
| 20260505175041 | 80 | 270 | 4.0 | 14.0 | 0.00 | 0.00 | 0.00 | 39 | 1003.9 |
| 20260505174017 | 79 | 225 | 3.0 | 12.0 | 0.00 | 0.00 | 0.00 | 42 | 1004.0 |
| 20260505173041 | 80 | 180 | 6.0 | 14.0 | 0.00 | 0.00 | 0.00 | 43 | 1004.3 |
| 20260505172021 | 80 | 203 | 6.0 | 20.0 | 0.00 | 0.00 | 0.00 | 42 | 1004.3 |
| 20260505171020 | 80 | 180 | 6.0 | 20.0 | 0.00 | 0.00 | 0.00 | 42 | 1004.4 |
| 20260505170020 | 79 | 203 | 4.0 | 11.0 | 0.00 | 0.00 | 0.00 | 48 | 1004.4 |
| 20260505165024 | 78 | 203 | 6.0 | 14.0 | 0.00 | 0.00 | 0.00 | 45 | 1004.7 |
| 20260505164020 | 78 | 203 | 5.0 | 14.0 | 0.00 | 0.00 | 0.00 | 42 | 1004.9 |
| 20260505163016 | 77 | 180 | 6.0 | 14.0 | 0.00 | 0.00 | 0.00 | 44 | 1005.2 |
| 20260505162020 | 77 | 180 | 6.0 | 18.0 | 0.00 | 0.00 | 0.00 | 48 | 1005.2 |
| 20260505161020 | 77 | 180 | 5.0 | 15.0 | 0.00 | 0.00 | 0.00 | 49 | 1005.4 |
| 20260505153017 | 75 | 180 | 5.0 | 10.0 | 0.00 | 0.00 | 0.00 | 49 | 1006.4 |
| 20260505152017 | 73 | 180 | 5.0 | 13.0 | 0.00 | 0.00 | 0.00 | 54 | 1006.6 |
| 20260505151021 | 72 | 203 | 5.0 | 11.0 | 0.00 | 0.00 | 0.00 | 56 | 1006.7 |
| 20260505125021 | 64 | 158 | 3.0 | 10.0 | 0.00 | 0.00 | 0.00 | 60 | 1007.0 |
| 20260505124020 | 64 | 180 | 3.0 | 10.0 | 0.00 | 0.00 | 0.00 | 62 | 1007.1 |
| 20260505123021 | 63 | 203 | 1.0 | 5.0 | 0.00 | 0.00 | 0.00 | 62 | 1007.2 |
| 20260505122040 | 62 | 203 | 1.0 | 7.0 | 0.00 | 0.00 | 0.00 | 61 | 1007.1 |
| 20260505121040 | 61 | 203 | 2.0 | 8.0 | 0.00 | 0.00 | 0.00 | 65 | 1007.1 |
| 20260505120036 | 61 | 180 | 3.0 | 9.0 | 0.00 | 0.00 | 0.00 | 65 | 1007.2 |
| 20260505115021 | 61 | 203 | 1.0 | 5.0 | 0.00 | 0.00 | 0.00 | 62 | 1007.3 |
| 20260505114041 | 60 | 180 | 1.0 | 5.0 | 0.00 | 0.00 | 0.00 | 65 | 1007.5 |
| 20260505113021 | 58 | 0.0 | 2.0 | 0.00 | 0.00 | 0.00 | 66 | 1007.3 | |
| 20260505112020 | 56 | 0.0 | 2.0 | 0.00 | 0.00 | 0.00 | 71 | 1007.1 | |
| 20260505111020 | 54 | 0.0 | 3.0 | 0.00 | 0.00 | 0.00 | 75 | 1007.2 | |
| 20260505102040 | 52 | 0.0 | 0.0 | 0.00 | 0.00 | 0.00 | 76 | 1006.8 | |
| 20260505101020 | 52 | 0.0 | 2.0 | 0.00 | 0.00 | 0.00 | 76 | 1006.8 | |
| 20260505100041 | 52 | 0.0 | 2.0 | 0.00 | 0.00 | 0.00 | 75 | 1006.6 | |
| 20260505095016 | 52 | 0.0 | 3.0 | 0.00 | 0.00 | 0.00 | 75 | 1006.7 | |
| 20260505094017 | 51 | 0.0 | 0.0 | 0.00 | 0.00 | 0.00 | 76 | 1006.8 | |
| 20260505093020 | 50 | 0.0 | 3.0 | 0.00 | 0.00 | 0.00 | 78 | 1006.9 | |
| 20260505092020 | 51 | 0 | 1.0 | 3.0 | 0.00 | 0.00 | 0.00 | 77 | 1007.0 |
| 20260505091022 | 51 | 0.0 | 1.0 | 0.00 | 0.00 | 0.00 | 76 | 1007.2 | |
| 20260505090022 | 52 | 0.0 | 2.0 | 0.00 | 0.00 | 0.00 | 76 | 1007.1 | |
| 20260505085024 | 52 | 0.0 | 2.0 | 0.00 | 0.00 | 0.00 | 74 | 1007.2 | |
| 20260505084020 | 52 | 0.0 | 1.0 | 0.00 | 0.00 | 0.00 | 74 | 1007.2 | |
| 20260505083024 | 52 | 0.0 | 2.0 | 0.00 | 0.00 | 0.00 | 74 | 1007.2 | |
| 20260505082024 | 53 | 0.0 | 5.0 | 0.00 | 0.00 | 0.00 | 72 | 1007.2 | |
| 20260505081024 | 53 | 0.0 | 1.0 | 0.00 | 0.00 | 0.00 | 71 | 1007.0 | |
| 20260505080024 | 53 | 0.0 | 0.0 | 0.00 | 0.00 | 0.00 | 71 | 1007.3 | |
| 20260505075024 | 54 | 0.0 | 1.0 | 0.00 | 0.00 | 0.00 | 70 | 1007.3 | |
| 20260505074024 | 54 | 0.0 | 4.0 | 0.00 | 0.00 | 0.00 | 68 | 1007.4 | |
| 20260505073021 | 54 | 113 | 1.0 | 4.0 | 0.00 | 0.00 | 0.00 | 68 | 1007.4 |
| 20260505072024 | 54 | 90 | 1.0 | 7.0 | 0.00 | 0.00 | 0.00 | 69 | 1007.5 |
| 20260505071024 | 54 | 135 | 1.0 | 7.0 | 0.00 | 0.00 | 0.00 | 68 | 1007.5 |
| 20260505070024 | 55 | 113 | 1.0 | 5.0 | 0.00 | 0.00 | 0.00 | 68 | 1007.6 |
| 20260505065025 | 55 | 113 | 2.0 | 7.0 | 0.00 | 0.00 | 0.00 | 67 | 1007.4 |
| 20260505064024 | 55 | 135 | 2.0 | 7.0 | 0.00 | 0.00 | 0.00 | 66 | 1007.6 |
| 20260505063020 | 55 | 135 | 1.0 | 5.0 | 0.00 | 0.00 | 0.00 | 65 | 1007.5 |
| 20260505062040 | 55 | 0.0 | 3.0 | 0.00 | 0.00 | 0.00 | 65 | 1007.6 | |
| 20260505061024 | 55 | 0.0 | 3.0 | 0.00 | 0.00 | 0.00 | 65 | 1007.6 | |
| 20260505060024 | 55 | 180 | 1.0 | 6.0 | 0.00 | 0.00 | 0.00 | 64 | 1007.7 |
| 20260505055024 | 55 | 180 | 1.0 | 4.0 | 0.00 | 0.00 | 0.00 | 65 | 1007.7 |
| 20260505054024 | 54 | 180 | 1.0 | 5.0 | 0.00 | 0.00 | 0.00 | 66 | 1007.6 |
| 20260505053024 | 54 | 0.0 | 4.0 | 0.00 | 0.00 | 0.00 | 66 | 1007.6 | |
| 20260505052020 | 54 | 158 | 1.0 | 3.0 | 0.00 | 0.00 | 0.00 | 65 | 1007.5 |
| 20260505051040 | 55 | 0.0 | 2.0 | 0.00 | 0.00 | 0.00 | 64 | 1007.4 | |
| 20260505041021 | 60 | 180 | 3.0 | 8.0 | 0.00 | 0.00 | 0.00 | 54 | 1007.6 |
| 20260505040024 | 60 | 180 | 3.0 | 7.0 | 0.00 | 0.00 | 0.00 | 52 | 1007.7 |
| 20260505035024 | 60 | 180 | 3.0 | 10.0 | 0.00 | 0.00 | 0.00 | 52 | 1007.5 |
| 20260505034024 | 61 | 180 | 3.0 | 8.0 | 0.00 | 0.00 | 0.00 | 51 | 1007.3 |
| 20260505033024 | 61 | 180 | 3.0 | 8.0 | 0.00 | 0.00 | 0.00 | 51 | 1007.3 |
| 20260505032040 | 61 | 180 | 3.0 | 8.0 | 0.00 | 0.00 | 0.00 | 50 | 1007.2 |
| 20260505031020 | 61 | 180 | 1.0 | 7.0 | 0.00 | 0.00 | 0.00 | 51 | 1007.2 |
| 20260505030023 | 61 | 180 | 3.0 | 9.0 | 0.00 | 0.00 | 0.00 | 51 | 1007.1 |
| 20260505025044 | 60 | 180 | 3.0 | 11.0 | 0.00 | 0.00 | 0.00 | 52 | 1007.1 |
| 20260505024145 | 59 | 180 | 2.0 | 6.0 | 0.00 | 0.00 | 0.00 | 55 | 1007.0 |
| 20260505023023 | 59 | 180 | 1.0 | 5.0 | 0.00 | 0.00 | 0.00 | 56 | 1007.1 |
| 20260505022024 | 58 | 180 | 1.0 | 5.0 | 0.00 | 0.00 | 0.00 | 58 | 1007.0 |
| 20260505021040 | 59 | 0.0 | 2.0 | 0.00 | 0.00 | 0.00 | 57 | 1007.1 | |
| 20260505020016 | 59 | 0.0 | 0.0 | 0.00 | 0.00 | 0.00 | 56 | 1007.2 | |
| 20260505015020 | 59 | 0.0 | 3.0 | 0.00 | 0.00 | 0.00 | 56 | 1007.2 | |
| 20260505014020 | 60 | 0.0 | 0.0 | 0.00 | 0.00 | 0.00 | 55 | 1007.2 | |
| 20260505013020 | 60 | 0.0 | 4.0 | 0.00 | 0.00 | 0.00 | 54 | 1007.0 | |
| 20260505012020 | 60 | 0.0 | 2.0 | 0.00 | 0.00 | 0.00 | 55 | 1007.1 | |
| 20260505011100 | 60 | 0.0 | 1.0 | 0.00 | 0.00 | 0.00 | 53 | 1007.0 | |
| 20260505010016 | 61 | 0.0 | 0.0 | 0.00 | 0.00 | 0.00 | 52 | 1006.9 | |
| 20260505005020 | 62 | 0.0 | 0.0 | 0.00 | 0.00 | 0.00 | 51 | 1006.8 | |
| 20260505004020 | 63 | 0.0 | 5.0 | 0.00 | 0.00 | 0.00 | 50 | 1006.7 | |
| 20260505003020 | 63 | 0.0 | 4.0 | 0.00 | 0.00 | 0.00 | 49 | 1006.6 | |
| 20260505002040 | 63 | 0.0 | 3.0 | 0.00 | 0.00 | 0.00 | 48 | 1006.4 |